User: anonymous   Login
Location: ?ejkovice
(49.0137°N, 14.3821°E)
Time: 08:41:22
(UTC+00:00)
Language:

ADEOS II - Orbit

View from above orbital plane
View from above orbital plane
View from above satellite
View from above satellite

Ground track
Ground track

The orbit data is extracted from the following two-line orbital elements,

1 27597U 02056A   24196.84689749  .00000596  00000-0  25594-3 0  9998
2 27597  98.6924 143.4227 0001062  34.5558 325.5692 14.28408931124203
Epoch (UTC): 14 July 2024 20:19:31
Eccentricity: 0.0001062
inclination: 98.6924°
perigee height: 796 km
apogee height: 798 km
right ascension of ascending node: 143.4227°
argument of perigee: 34.5558°
revolutions per day: 14.28408931
mean anomaly at epoch: 325.5692°
orbit number at epoch: 12420

The dashed part of the orbit path shows where the satellite is in the earth's shadow,  

DLR